Torna al catalogo

FENGYUN 1C DEB

AttivoSSO
NORAD 31691·DEBRIS·🇨🇳 China

Lanciato May 10, 1999 da Taiyuan Satellite Launch Center

Loading…

Prossimi Passaggi (prossime 24 ore)

TLE

In scadenzaSource: Space-Track

Epoca: Sep 8, 2026, 02:08 UTC

1 31691U 99025CCZ 26251.08928168  .00003273  00000-0  12997-2 0  9998
2 31691  98.8773 346.6876 0060143 177.7770 182.3690 14.28464707679547

Traccia FENGYUN 1C DEB in tempo reale con AllMySat

Download on the App Store